User: anonymous   Login
Location: Guayaquil
(2.1667°S, 79.9000°W)
Time: 11:35:39
(UTC-05:00)
Language:

NEE 01 PEGASUS - Orbit

View from above orbital plane
View from above orbital plane
View from above satellite
View from above satellite

Ground track
Ground track

The orbit data is extracted from the following two-line orbital elements,

1 39151U 13018B   19142.50089889  .00000113  00000-0  21943-4 0  9994
2 39151  97.9702 239.1234 0015663 291.6078  68.3464 14.80036934327701
Epoch (UTC): 22 May 2019 12:01:17
Eccentricity: 0.0015663
inclination: 97.9702°
perigee height: 618 km
apogee height: 640 km
right ascension of ascending node: 239.1234°
argument of perigee: 291.6078°
revolutions per day: 14.80036934
mean anomaly at epoch: 68.3464°
orbit number at epoch: 32770

The dashed part of the orbit path shows where the satellite is in the earth's shadow,  

DLR